Погода в Наримановой

Россия / Тюменская область     57°22′24″N   65°05′44″E
темп.,
°C
ветер,
м/с
пор.,
м/с
влажн.,
%
обл.,
%
осадки,
мм/ч
давл.,
гПа
погр.,
м
24 мая, вт
вт2423:00+8ююв3694100 0.0 1006305
02:00+8ююв2796100 0.0 1006247
05:00+9ююв2798100 0.1 1007218
08:00+13ююз5985100 0.3 1007867
11:00+15юз5870100 0.3 10091359
14:00+18ююз6866100 0.4 10101231
17:00+14ю1288100 0.6 101138
20:00+13с2494100 0.6 101294
25 мая, ср
ср2523:00+13всв41094100 2.6 1012270
02:00+12в3698100 0.5 1011131
05:00+12юв3687100 0.5 1011101
08:00+15юв41179100 0.0 1011284
11:00+21ююв51052100 0.0 1011520
14:00+25юв61044100 0.0 10101054
17:00+24ююв61249100 0.0 10101233
20:00+20юв5136391 0.0 1009413
26 мая, чт
чт2623:00+16ююв3117694 0.0 1009238
02:00+14ююв397998 0.0 1009158
05:00+13ююв2280100 0.0 100833
08:00+18ююз136363 0.0 1008376
11:00+21сз325873 0.0 1007987
14:00+22зсз5457100 0.0 1006615
17:00+16сз71173100 0.1 1006494
20:00+12зсз5996100 7.9 1007469
27 мая, пт
пт2723:00+11ссз61297100 22.1 1005466
02:00+9сз71297100 0.6 1005612
05:00+9сз71396100 2.9 1005677
08:00+8сз81595100 2.4 1006749
11:00+8зсз71393100 7.2 1008787
14:00+14зсз69585 0.1 10091574
17:00+16з595698 0.1 10102267
20:00+12з49725 0.0 1012324
28 мая, сб
сб2823:00+8юз378419 0.0 1013110
02:00+7юз378917 0.0 1014117
05:00+7юз368923 0.0 1015122
08:00+13ююз366928 0.0 1015338
11:00+17ююз465521 0.0 10141232
14:00+17ююз3662100 0.0 1014952
17:00+18ю366068 0.0 10151242
20:00+15ю25786 0.0 1015110